Location: ????????
(56.0167°N, 38.0333°E)
Time: 14:36:44
(UTC+00:00)

USA 229 - Pass Details

Date: 19 May 2025
Orbit: 872 x 1339 km, 63.4° (Epoch: 17 June)

Event Time Altitude Azimuth Distance (km) Brightness Sun altitude
Exits shadow 21:33:28 17° 204° (SSW) 2,187 4.8 -14.0°
Maximum altitude 21:38:12 58° 130° (SE) 1,164 3.7 -14.0°
Drops below altitude 10° 21:44:58 10° 54° (NE) 2,958 6.6 -13.9°
Sets 21:47:49 0° 51° (NE) 3,992 7.4 -13.8°
